Weather History for KALS - January, 2012

Change the Weather History Date:

Wednesday, January 11, 2012

  Actual Average Record
Temperature  
Mean Temperature 19 °F 16 °F  
Max Temperature 37 °F 34 °F 61 °F (1940)
Min Temperature 0 °F -2 °F -28 °F (1975)
Degree Days  
Heating Degree Days 46 49  
Month to date heating degree days 496 539  
Since 1 July heating degree days 4086 4176  
Cooling Degree Days 0 0  
Month to date cooling degree days 0 0  
Year to date cooling degree days 0 0  
Moisture  
Dew Point 2 °F    
Average Humidity 54    
Maximum Humidity 87    
Minimum Humidity 21    
Precipitation  
Precipitation 0.00 in 0.01 in 0.05 in (1963)
Month to date precipitation 0.00 0.09  
Year to date precipitation 0.00 0.09  
Snow  
Snow 0.00 in 0.10 in 0.60 in (1968)
Month to date snowfall 0.0 1.3  
Since 1 July snowfall 12.4 11.6  
Snow Depth 0.00 in    
Sea Level Pressure  
Sea Level Pressure 30.10 in    
Wind  
Wind Speed 8 mph (North)    
Max Wind Speed 28 mph    
Max Gust Speed 39 mph    
Visibility 10 miles    
Events      
T = Trace of Precipitation, MM = Missing Value Source: NWS Daily Summary

Daily Weather History Graph

Daily Weather History Graph

Search for Another Location

Airport or City:

Trip Planner

Search our weather history database for the weather conditions in past years. The results will help you decide how hot, cold, wet, or windy it might be!

Date:

Astronomy

Jan. 11, 2012 Rise Set
Actual Time 7:17 AM MST 5:04 PM MST
Civil Twilight 6:49 AM MST 5:33 PM MST
Nautical Twilight 6:16 AM MST 6:05 PM MST
Astronomical Twilight 5:45 AM MST 6:37 PM MST
Moon 8:01 PM MST (1/11) 8:35 AM MST (1/11)
Length of Visible Light 10h 44m
Length of Day
9h 46m
Waning Gibbous, 93% of the Moon is Illuminated
Jan 11
Waning Gibbous
Jan 16
Last Quarter
Jan 23
New
Jan 30
First Quarter
Feb 7
Full

Hourly Weather History & Observations

Time (MST) Temp. Windchill Dew Point Humidity Pressure Visibility Wind Dir Wind Speed Gust Speed Precip Events Conditions
12:52 AM 8.1 °F - 3.0 °F 80% 30.07 in 10.0 mi Calm Calm - N/A   Clear
1:52 AM 5.0 °F - -0.0 °F 80% 30.06 in 10.0 mi Calm Calm - N/A   Clear
2:52 AM 3.9 °F -3.4 °F -0.9 °F 80% 30.05 in 10.0 mi WSW 3.5 mph - N/A   Clear
3:52 AM 1.0 °F - -2.9 °F 83% 30.04 in 10.0 mi Calm Calm - N/A   Clear
4:52 AM 1.9 °F - -4.0 °F 76% 30.07 in 10.0 mi Calm Calm - N/A   Clear
5:52 AM 1.4 °F -6.2 °F -2.2 °F 85% 29.93 in 10.0 mi NNE 3.5 mph - N/A   Clear
6:52 AM 1.9 °F -5.6 °F -2.0 °F 83% 30.13 in 10.0 mi North 3.5 mph - N/A   Clear
7:52 AM 3.9 °F -8.2 °F -0.0 °F 84% 30.17 in 10.0 mi WNW 6.9 mph - N/A   Clear
8:52 AM 10.9 °F - 6.1 °F 81% 30.17 in 10.0 mi Calm Calm - N/A   Clear
9:52 AM 21.0 °F - 12.9 °F 71% 30.13 in 10.0 mi Calm Calm - N/A   Clear
10:52 AM 30.9 °F - 16.0 °F 54% 30.06 in 10.0 mi Calm Calm - N/A   Clear
11:52 AM 36.0 °F 29.0 °F 9.0 °F 33% 30.01 in 10.0 mi NNW 9.2 mph - N/A   Clear
12:52 PM 35.1 °F 27.9 °F 3.9 °F 27% 29.99 in 10.0 mi NNW 9.2 mph - N/A   Clear
1:52 PM 37.0 °F 26.4 °F 1.9 °F 23% 29.99 in 10.0 mi NNW 20.7 mph 27.6 mph N/A   Clear
2:52 PM 34.0 °F 23.0 °F 8.1 °F 34% 30.02 in 10.0 mi NNW 18.4 mph 29.9 mph N/A   Clear
3:52 PM 32.0 °F 19.5 °F 5.0 °F 32% 30.08 in 10.0 mi North 21.9 mph 32.2 mph N/A   Clear
4:52 PM 27.0 °F 13.2 °F 3.9 °F 37% 30.12 in 10.0 mi North 20.7 mph 31.1 mph N/A   Clear
5:52 PM 25.0 °F 11.7 °F 1.0 °F 36% 30.17 in 10.0 mi NNW 17.3 mph 27.6 mph N/A   Clear
6:52 PM 24.1 °F 10.6 °F -0.0 °F 35% 30.22 in 10.0 mi NNW 17.3 mph - N/A   Clear
7:52 PM 21.0 °F 11.4 °F -0.0 °F 40% 30.23 in 10.0 mi NNW 8.1 mph - N/A   Clear
8:52 PM 16.0 °F 3.6 °F -0.0 °F 49% 30.24 in 10.0 mi ENE 10.4 mph - N/A   Clear
9:52 PM 17.1 °F 4.3 °F -2.0 °F 43% 30.20 in 10.0 mi North 11.5 mph - N/A   Clear
10:52 PM 14.0 °F 2.9 °F -4.0 °F 45% 30.18 in 10.0 mi North 8.1 mph - N/A   Clear
11:52 PM 10.9 °F 4.7 °F -7.1 °F 44% 30.18 in 10.0 mi ESE 3.5 mph - N/A   Clear